[[{"header":{"parameterUnit":"m.s-1","parameterCategory":2,"la1":30.2992,"la2":30.254,"lo1":-89.0895,"lo2":-89.0443,"dy":0.0025,"dx":0.0025,"nx":19,"ny":19,"refTime":"2026-05-19T03:00:00:Z","depth":"0","parameterNumber":2,"parameterNumberName":"U-component_of_CURRENTS"},"data":[0,0,0,-0.4177,-0.4181,-0.4301,-0.4301,-0.4303,-0.4302,0,0,0,0,0,0,0,0,0,0,0,-0.4119,-0.4119,-0.4177,-0.4181,-0.4301,-0.4301,-0.4303,-0.4302,0,0,0,0,0,0,0,0,0,0,0,-0.4118,-0.4119,-0.412,-0.4181,-0.4301,-0.4301,-0.4303,-0.4246,0,0,0,0,0,0,0,0,0,0,-0.4146,-0.4094,-0.4119,-0.412,-0.4182,-0.43,-0.4301,-0.4244,-0.4249,-0.4211,0,-0.4236,0,-0.4282,-0.4301,-0.4301,0,0,0,-0.4163,-0.409,-0.4155,-0.412,-0.4184,-0.43,-0.4241,-0.4248,-0.4253,-0.4216,-0.4237,-0.4239,-0.4282,-0.43,-0.43,-0.4384,-0.4385,0,0,-0.4156,-0.4104,-0.4152,-0.4159,-0.4221,-0.4238,-0.4245,-0.4253,-0.4237,-0.4237,-0.424,-0.4282,-0.43,-0.43,-0.4383,-0.4385,0,0,0,-0.4149,-0.4099,-0.4166,-0.4157,-0.4198,-0.4242,-0.425,-0.4236,-0.4268,-0.424,-0.4282,-0.43,-0.43,-0.4382,-0.4384,-0.4479,0,0,0,-0.4144,-0.4098,-0.4163,-0.4128,-0.4199,-0.4234,-0.4232,-0.4267,-0.4271,-0.4282,-0.43,-0.43,-0.4381,-0.4383,-0.4474,-0.4513,0,0,0,-0.4112,-0.4093,-0.4118,-0.4126,-0.4193,-0.4236,-0.4268,-0.427,-0.4296,-0.4301,-0.43,-0.438,-0.4382,-0.4469,-0.4505,-0.4503,0,0,0,-0.4041,-0.4105,-0.4115,-0.42,-0.4192,-0.4342,-0.4268,-0.4327,-0.434,-0.43,-0.4381,-0.4383,-0.4468,-0.45,-0.4499,-0.4196,-0.4189,0,0,-0.4099,-0.4109,-0.417,-0.4186,-0.4343,-0.4323,-0.4454,-0.4413,-0.4365,-0.4361,-0.4364,-0.4476,-0.4505,-0.4502,-0.4348,-0.4336,0,0,0,-0.4176,-0.4219,-0.4268,-0.4353,-0.4446,-0.4521,-0.4511,-0.4503,-0.4497,-0.439,-0.4503,-0.4518,-0.4513,-0.4323,-0.4315,-0.3988,-0.4396,-0.4395,-0.4395,-0.4151,-0.4251,-0.4364,-0.4491,-0.4573,-0.465,-0.4694,-0.4678,-0.4603,-0.4616,-0.4617,-0.471,-0.4512,-0.4502,-0.4172,-0.4641,-0.4641,-0.4642,-0.4642,-0.4248,-0.4321,-0.4436,-0.4577,-0.4672,-0.4762,-0.4844,-0.4809,-0.4813,-0.4746,-0.4734,-0.446,-0.4497,-0.4148,-0.4649,-0.4647,-0.4647,-0.4646,-0.4646,-0.4219,-0.4277,-0.4362,-0.4555,-0.4685,-0.4799,-0.4871,-0.4913,-0.4885,-0.4905,-0.4608,-0.4602,-0.427,-0.4856,-0.4857,-0.4857,-0.4857,-0.4857,-0.4857,-0.4136,-0.4246,-0.4335,-0.4533,-0.4619,-0.474,-0.486,-0.4857,-0.4763,-0.4687,-0.4683,-0.4244,-0.4774,-0.4737,-0.4861,-0.486,-0.486,-0.4859,-0.4859,-0.4096,-0.4128,-0.4263,-0.4351,-0.4543,-0.4491,-0.4687,-0.4553,-0.4579,-0.4461,-0.4004,-0.455,-0.4473,-0.4474,-0.4429,-0.4467,-0.4467,-0.4467,-0.4467,-0.4005,-0.4061,-0.414,-0.423,-0.4343,-0.436,-0.4068,-0.389,-0.3702,-0.3504,-0.3667,-0.3508,-0.3538,-0.3401,-0.3427,-0.3358,-0.3124,-0.3122,-0.312,-0.3931,-0.3988,-0.3959,-0.4082,-0.4197,-0.4089,-0.3581,-0.3024,-0.2862,-0.3046,-0.3281,-0.3338,-0.3094,-0.3168,-0.2946,-0.3008,-0.2895,0,0]},{"header":{"parameterUnit":"m.s-1","parameterCategory":2,"la1":30.2992,"la2":30.254,"lo1":-89.0895,"lo2":-89.0443,"dy":0.0025,"dx":0.0025,"nx":19,"ny":19,"refTime":"2026-05-19T03:00:00:Z","depth":"0","parameterNumber":3,"parameterNumberName":"V-component_of_CURRENTS"},"data":[0,0,0,-0.0161,-0.0157,0.0052,0.0053,0.0297,0.0299,0,0,0,0,0,0,0,0,0,0,0,-0.0241,-0.024,-0.0161,-0.0156,0.0052,0.0053,0.0297,0.0299,0,0,0,0,0,0,0,0,0,0,0,-0.0241,-0.024,-0.0239,-0.0156,0.0051,0.0053,0.0296,0.0148,0,0,0,0,0,0,0,0,0,0,-0.005,-0.0144,-0.0241,-0.0239,-0.0155,0.0051,0.0053,0.0142,0.0158,0.0192,0,0.0212,0,0.0259,0.0314,0.0314,0,0,0,-0.0141,-0.0157,-0.0085,-0.0239,-0.0153,0.0051,-0.0038,0.0151,0.0169,0.0213,0.0216,0.0226,0.0263,0.0315,0.0316,0.0567,0.0568,0,0,-0.0152,-0.0212,-0.0097,-0.0074,-0.0114,-0.0045,-0.0032,0.0162,0.0164,0.0217,0.0232,0.0267,0.0316,0.0318,0.0566,0.0567,0,0,0,-0.0196,-0.0221,-0.0153,-0.0085,-0.0046,-0.0039,-0.0024,0.0155,0.0183,0.0235,0.027,0.0318,0.032,0.0565,0.0566,0.0478,0,0,0,-0.0202,-0.0247,-0.0158,-0.0193,-0.005,0.0056,-0.0036,0.0169,0.0193,0.0268,0.0318,0.0322,0.0563,0.0566,0.0478,0.035,0,0,0,-0.0248,-0.0252,-0.0229,-0.0197,-0.011,0.0054,0.0093,0.0176,0.0213,0.0315,0.0323,0.0563,0.0565,0.0478,0.0354,0.026,0,0,0,-0.0313,-0.0307,-0.0231,-0.0203,-0.0112,0.0024,0.0093,0.0194,0.0274,0.0319,0.0564,0.0566,0.0478,0.0356,0.0263,0.02,0.0179,0,0,-0.0344,-0.0313,-0.0291,-0.0217,-0.0132,-0.0003,0.0121,0.0245,0.0335,0.0498,0.0505,0.0478,0.0354,0.026,0.0357,0.0329,0,0,0,-0.0325,-0.0325,-0.028,-0.0212,-0.0079,0.0034,0.0196,0.0288,0.0441,0.0396,0.0559,0.0483,0.0425,0.0399,0.038,0.0777,0.0579,0.0578,0.0578,-0.0486,-0.0388,-0.0364,-0.0232,-0.0131,0.0082,0.0179,0.0344,0.0454,0.0524,0.0474,0.0418,0.04,0.0382,0.0798,0.0596,0.0596,0.0596,0.0596,-0.0603,-0.0608,-0.046,-0.0414,-0.0235,-0.0117,0.0161,0.0264,0.0384,0.0498,0.0448,0.0387,0.0354,0.0806,0.0591,0.0592,0.0592,0.0593,0.0593,-0.0766,-0.0756,-0.0706,-0.0638,-0.0521,-0.0286,-0.0231,0.0006,0.0218,0.0214,0.0173,0.0174,0.0505,0.019,0.0189,0.0188,0.0188,0.0187,0.0186,-0.0986,-0.092,-0.0987,-0.0879,-0.0853,-0.0756,-0.0493,-0.042,-0.0201,0.0015,0.0016,0.0564,0.0293,0.0232,0.0172,0.0175,0.0177,0.0178,0.0179,-0.1217,-0.12,-0.1314,-0.133,-0.1266,-0.1231,-0.0991,-0.0777,-0.0651,-0.0565,0.0321,-0.0065,-0.0074,-0.0055,-0.0121,-0.027,-0.027,-0.027,-0.027,-0.1413,-0.1399,-0.1598,-0.1673,-0.1683,-0.1459,-0.1297,-0.0842,-0.0193,0.0242,0.0369,0.0563,0.0563,0.0607,0.0611,0.0567,0.0595,0.0597,0.0599,-0.1599,-0.1635,-0.1821,-0.1853,-0.1854,-0.1698,-0.1319,-0.0356,0.0519,0.0684,0.0941,0.0904,0.1249,0.1216,0.1334,0.1308,0.1252,0,0]}],[{"header":{"parameterUnit":"m.s-1","parameterCategory":2,"la1":30.2992,"la2":30.254,"lo1":-89.0895,"lo2":-89.0443,"dy":0.0025,"dx":0.0025,"nx":19,"ny":19,"refTime":"2026-05-19T03:00:00:Z","depth":"2","parameterNumber":2,"parameterNumberName":"U-component_of_CURRENTS"},"data":[0,0,0,-0.341,-0.3414,-0.3547,-0.3547,-0.3521,-0.352,0,0,0,0,0,0,0,0,0,0,0,-0.336,-0.3361,-0.341,-0.3414,-0.3547,-0.3547,-0.3521,-0.352,0,0,0,0,0,0,0,0,0,0,0,-0.3359,-0.3361,-0.3363,-0.3415,-0.3547,-0.3547,-0.3521,-0.3465,0,0,0,0,0,0,0,0,0,0,-0.3359,-0.3302,-0.3361,-0.3363,-0.3416,-0.3547,-0.3547,-0.3465,-0.3469,-0.341,0,-0.345,0,-0.349,-0.3516,-0.3515,0,0,0,-0.3396,-0.3299,-0.3384,-0.3363,-0.3417,-0.3546,-0.3482,-0.3468,-0.3473,-0.3415,-0.345,-0.3451,-0.349,-0.3515,-0.3515,-0.3495,-0.3496,0,0,-0.3389,-0.3327,-0.3382,-0.3388,-0.3472,-0.3478,-0.3486,-0.3473,-0.3451,-0.345,-0.3451,-0.3489,-0.3515,-0.3514,-0.3495,-0.3496,0,0,0,-0.338,-0.3321,-0.341,-0.3387,-0.3431,-0.3482,-0.3492,-0.3451,-0.3496,-0.3452,-0.3489,-0.3514,-0.3514,-0.3495,-0.3495,-0.3588,0,0,0,-0.3375,-0.3319,-0.3407,-0.3362,-0.3433,-0.3458,-0.3469,-0.3497,-0.3498,-0.3489,-0.3514,-0.3513,-0.3495,-0.3495,-0.3585,-0.3655,0,0,0,-0.335,-0.3314,-0.3349,-0.336,-0.3433,-0.3461,-0.3503,-0.3499,-0.352,-0.3515,-0.3513,-0.3494,-0.3495,-0.3582,-0.3649,-0.3653,0,0,0,-0.3255,-0.3326,-0.3347,-0.3424,-0.3433,-0.3548,-0.3504,-0.3558,-0.3564,-0.3514,-0.3495,-0.3495,-0.3581,-0.3645,-0.365,-0.3054,-0.3021,0,0,-0.3307,-0.3329,-0.3384,-0.3409,-0.3522,-0.3527,-0.3592,-0.3581,-0.3545,-0.348,-0.3482,-0.3586,-0.3648,-0.3652,-0.3096,-0.3061,0,0,0,-0.3377,-0.3403,-0.3445,-0.3506,-0.3591,-0.3635,-0.3626,-0.3623,-0.361,-0.3557,-0.3574,-0.3611,-0.361,-0.3243,-0.3217,-0.3499,-0.3499,-0.3498,-0.3498,-0.3272,-0.3376,-0.346,-0.3573,-0.3632,-0.3693,-0.3735,-0.3715,-0.365,-0.3663,-0.3677,-0.3736,-0.3344,-0.3317,-0.3648,-0.3649,-0.3649,-0.3649,-0.365,-0.3313,-0.336,-0.3472,-0.3601,-0.3675,-0.3725,-0.3797,-0.3792,-0.3807,-0.3751,-0.3743,-0.3347,-0.3291,-0.3657,-0.3655,-0.3654,-0.3654,-0.3653,-0.3653,-0.3197,-0.3255,-0.3358,-0.354,-0.3659,-0.3762,-0.3758,-0.3895,-0.3894,-0.3931,-0.3453,-0.3442,-0.3793,-0.389,-0.3891,-0.3891,-0.3891,-0.3892,-0.3892,-0.304,-0.3167,-0.3249,-0.3487,-0.3539,-0.3621,-0.3767,-0.3687,-0.3573,-0.3517,-0.351,-0.3816,-0.3809,-0.3806,-0.3897,-0.3896,-0.3896,-0.3895,-0.3895,-0.29,-0.2982,-0.3081,-0.3145,-0.3214,-0.311,-0.3313,-0.3043,-0.3055,-0.2873,-0.3237,-0.3251,-0.3159,-0.3169,-0.3148,-0.3067,-0.3067,-0.3067,-0.3066,-0.275,-0.2831,-0.2809,-0.2764,-0.2677,-0.2776,-0.2376,-0.2333,-0.2464,-0.2538,-0.2565,-0.237,-0.2408,-0.227,-0.2302,-0.2264,-0.1953,-0.1952,-0.1952,-0.2628,-0.2673,-0.2499,-0.2486,-0.2357,-0.2225,-0.1971,-0.1847,-0.1789,-0.1941,-0.271,-0.2926,-0.2693,-0.2735,-0.2564,-0.2601,-0.2554,0,0]},{"header":{"parameterUnit":"m.s-1","parameterCategory":2,"la1":30.2992,"la2":30.254,"lo1":-89.0895,"lo2":-89.0443,"dy":0.0025,"dx":0.0025,"nx":19,"ny":19,"refTime":"2026-05-19T03:00:00:Z","depth":"2","parameterNumber":3,"parameterNumberName":"V-component_of_CURRENTS"},"data":[0,0,0,-0.0162,-0.0159,0.0076,0.0077,0.0444,0.0447,0,0,0,0,0,0,0,0,0,0,0,-0.024,-0.024,-0.0162,-0.0158,0.0075,0.0077,0.0444,0.0447,0,0,0,0,0,0,0,0,0,0,0,-0.0241,-0.024,-0.0239,-0.0158,0.0075,0.0077,0.0443,0.026,0,0,0,0,0,0,0,0,0,0,0.0029,-0.0085,-0.024,-0.0239,-0.0157,0.0075,0.0077,0.0251,0.0272,0.0343,0,0.0353,0,0.039,0.0469,0.047,0,0,0,-0.0113,-0.0103,-0.0032,-0.0239,-0.0155,0.0074,-0.0017,0.0263,0.0286,0.0371,0.0358,0.0372,0.0396,0.0471,0.0473,0.0677,0.0677,0,0,-0.0126,-0.0191,-0.0049,-0.0019,-0.0127,-0.0025,-0.0011,0.0276,0.0284,0.0359,0.038,0.0402,0.0474,0.0476,0.0677,0.0677,0,0,0,-0.0194,-0.0201,-0.0137,-0.0034,-0.0007,-0.0019,-0.0002,0.0272,0.0293,0.0384,0.0406,0.0475,0.0479,0.0677,0.0677,0.0523,0,0,0,-0.0199,-0.0243,-0.0144,-0.0179,-0.0014,0.0121,-0.0015,0.0274,0.0307,0.0404,0.0476,0.0483,0.0678,0.0677,0.0528,0.0486,0,0,0,-0.0245,-0.0247,-0.0229,-0.0183,-0.0102,0.0117,0.0157,0.0283,0.0319,0.0471,0.0483,0.0678,0.0677,0.0532,0.0493,0.0558,0,0,0,-0.0304,-0.0343,-0.0232,-0.025,-0.0105,0.0008,0.0156,0.0265,0.0379,0.0477,0.0678,0.0677,0.0533,0.0498,0.0561,0.0419,0.0397,0,0,-0.0397,-0.0356,-0.0363,-0.0259,-0.0217,-0.0019,0.0066,0.0272,0.0401,0.0597,0.0603,0.0526,0.0494,0.0559,0.0389,0.0367,0,0,0,-0.042,-0.0437,-0.0399,-0.0343,-0.0206,-0.0054,0.0141,0.0251,0.0421,0.0459,0.0559,0.0545,0.0591,0.0511,0.0494,0.0675,0.0675,0.0675,0.0675,-0.0627,-0.054,-0.0539,-0.0414,-0.0316,-0.0072,0.0067,0.026,0.0364,0.0404,0.0441,0.0417,0.0325,0.0313,0.0457,0.0456,0.0455,0.0455,0.0455,-0.0785,-0.0779,-0.0636,-0.0616,-0.0406,-0.0302,0.0013,0.0119,0.0318,0.0362,0.0414,0.0378,0.0285,0.0443,0.0445,0.0447,0.0448,0.0449,0.045,-0.0928,-0.0909,-0.0882,-0.0805,-0.066,-0.042,-0.0263,-0.0011,0.0187,0.0236,0.0249,0.025,0.0367,0.0268,0.0268,0.0268,0.0268,0.0268,0.0268,-0.1086,-0.1046,-0.1079,-0.0975,-0.0899,-0.0737,-0.0404,-0.0288,-0.0056,0.0109,0.011,0.0358,0.0364,0.0362,0.0269,0.0269,0.0269,0.0269,0.0269,-0.1256,-0.1255,-0.129,-0.1258,-0.1094,-0.0988,-0.0713,-0.0483,-0.0302,-0.0225,0.0088,0.0092,0.0162,0.0175,0.0171,0.0036,0.0036,0.0036,0.0036,-0.1381,-0.1382,-0.1416,-0.1368,-0.1286,-0.1077,-0.0968,-0.0616,-0.0255,-0.0017,-0.0013,-0.0051,-0.0043,0.0019,0.0035,0.0031,-0.014,-0.014,-0.0139,-0.1484,-0.1474,-0.1497,-0.1438,-0.133,-0.1223,-0.1039,-0.056,-0.0142,-0.0134,0.0087,-0.0001,-0.0052,-0.0041,0.0063,0.0086,0.0084,0,0]}],[{"header":{"parameterUnit":"m.s-1","parameterCategory":2,"la1":30.2992,"la2":30.254,"lo1":-89.0895,"lo2":-89.0443,"dy":0.0025,"dx":0.0025,"nx":19,"ny":19,"refTime":"2026-05-19T03:00:00:Z","depth":"4","parameterNumber":2,"parameterNumberName":"U-component_of_CURRENTS"},"data":[0,0,0,-0.1373,-0.1378,-0.1625,-0.1626,-0.1815,-0.1816,0,0,0,0,0,0,0,0,0,0,0,-0.127,-0.1271,-0.1373,-0.1379,-0.1625,-0.1626,-0.1815,-0.1816,0,0,0,0,0,0,0,0,0,0,0,-0.1269,-0.1271,-0.1273,-0.138,-0.1624,-0.1626,-0.1814,-0.166,0,0,0,0,0,0,0,0,0,0,-0.1436,-0.1367,-0.1271,-0.1273,-0.1381,-0.1624,-0.1626,-0.1654,-0.1669,-0.1668,0,-0.1702,0,-0.177,-0.1826,-0.1827,0,0,0,-0.1379,-0.1354,-0.1416,-0.1273,-0.1383,-0.1624,-0.1514,-0.1664,-0.1681,-0.1688,-0.1705,-0.1714,-0.1773,-0.1827,-0.1828,-0.1941,-0.1941,0,0,-0.1365,-0.132,-0.1404,-0.1427,-0.1441,-0.1506,-0.1521,-0.1676,-0.169,-0.1706,-0.172,-0.1776,-0.1828,-0.1829,-0.1941,-0.1941,0,0,0,-0.1326,-0.131,-0.1372,-0.1417,-0.1477,-0.1513,-0.1531,-0.1683,-0.1703,-0.1723,-0.1778,-0.1829,-0.1831,-0.1941,-0.1941,-0.1976,0,0,0,-0.1318,-0.1289,-0.1365,-0.1342,-0.1474,-0.1604,-0.1534,-0.1691,-0.1712,-0.1777,-0.1829,-0.1832,-0.1941,-0.1941,-0.1975,-0.1943,0,0,0,-0.126,-0.1284,-0.1308,-0.1339,-0.1449,-0.1603,-0.1633,-0.1698,-0.1746,-0.1827,-0.1833,-0.1941,-0.1941,-0.1974,-0.1943,-0.197,0,0,0,-0.121,-0.1234,-0.1307,-0.136,-0.1446,-0.1565,-0.1633,-0.1738,-0.1804,-0.183,-0.1941,-0.1941,-0.1973,-0.1942,-0.197,-0.1767,0,0,0,-0.1204,-0.1232,-0.1263,-0.1335,-0.1418,-0.1532,-0.1641,-0.1761,-0.1806,-0.1881,-0.1885,-0.1975,-0.1942,-0.197,-0.1788,0,0,0,0,-0.1238,-0.126,-0.1294,-0.1376,-0.1474,-0.1569,-0.1705,-0.1782,-0.1898,-0.1851,-0.1972,-0.1949,-0.1966,-0.1846,-0.1943,-0.1943,-0.1943,-0.1943,-0.1943,-0.115,-0.123,-0.1278,-0.1374,-0.1451,-0.1621,-0.1704,-0.1828,-0.1896,-0.1951,-0.1978,-0.2014,-0.1889,-0.2002,-0.2002,-0.2002,-0.2003,-0.2003,-0.2003,-0.1112,-0.1139,-0.1256,-0.1332,-0.1447,-0.1561,-0.1734,-0.1822,-0.1966,-0.2001,-0.2019,-0.189,-0.2006,-0.2005,-0.2005,-0.2005,-0.2004,-0.2004,-0.2004,-0.1018,-0.1045,-0.1126,-0.1243,-0.1368,-0.1525,-0.1667,-0.1825,-0.1949,-0.1996,-0.1906,-0.2026,-0.2023,-0.2051,-0.2051,-0.2051,-0.2051,-0.2051,-0.2051,-0.0879,-0.0965,-0.1007,-0.1144,-0.1229,-0.1376,-0.1636,-0.1735,-0.19,-0.1883,-0.2026,-0.2029,-0.2028,-0.2025,-0.2051,-0.2051,-0.2051,-0.2051,-0.2051,-0.0744,-0.0808,-0.085,-0.0922,-0.1128,-0.1237,-0.1464,-0.164,-0.1731,-0.1737,-0.1822,-0.1833,-0.1794,-0.1798,-0.1786,-0.1743,-0.174,-0.1737,0,-0.0628,-0.0672,-0.0736,-0.0843,-0.0988,-0.1172,-0.1279,-0.1431,-0.1577,-0.1541,-0.1731,-0.1824,-0.1832,-0.1785,-0.1785,-0.1766,0,0,0,-0.0514,-0.0564,-0.0581,-0.0771,-0.0954,-0.1152,-0.1321,-0.1351,-0.1528,-0.155,-0.1674,-0.169,-0.1881,-0.2051,-0.2018,-0.2016,-0.2009,0,0]},{"header":{"parameterUnit":"m.s-1","parameterCategory":2,"la1":30.2992,"la2":30.254,"lo1":-89.0895,"lo2":-89.0443,"dy":0.0025,"dx":0.0025,"nx":19,"ny":19,"refTime":"2026-05-19T03:00:00:Z","depth":"4","parameterNumber":3,"parameterNumberName":"V-component_of_CURRENTS"},"data":[0,0,0,-0.0528,-0.0528,-0.0513,-0.0513,-0.0439,-0.0439,0,0,0,0,0,0,0,0,0,0,0,-0.0517,-0.0518,-0.0528,-0.0528,-0.0513,-0.0513,-0.0439,-0.0439,0,0,0,0,0,0,0,0,0,0,0,-0.0517,-0.0518,-0.0518,-0.0528,-0.0513,-0.0513,-0.0439,-0.0457,0,0,0,0,0,0,0,0,0,0,-0.0476,-0.0498,-0.0518,-0.0518,-0.0529,-0.0513,-0.0513,-0.0458,-0.0456,-0.044,0,-0.0448,0,-0.0461,-0.0435,-0.0435,0,0,0,-0.0499,-0.05,-0.0491,-0.0518,-0.0529,-0.0513,-0.0512,-0.0457,-0.0455,-0.0437,-0.0448,-0.0446,-0.046,-0.0435,-0.0435,-0.0452,-0.0452,0,0,-0.05,-0.0515,-0.0493,-0.049,-0.0538,-0.0512,-0.0512,-0.0456,-0.0461,-0.0447,-0.0444,-0.0459,-0.0435,-0.0434,-0.0451,-0.0452,0,0,0,-0.0522,-0.0516,-0.0508,-0.0492,-0.0505,-0.0513,-0.0512,-0.0463,-0.046,-0.0444,-0.0458,-0.0434,-0.0434,-0.0451,-0.0452,-0.0569,0,0,0,-0.0521,-0.0531,-0.0509,-0.0517,-0.0507,-0.0497,-0.052,-0.0462,-0.0458,-0.0458,-0.0434,-0.0433,-0.045,-0.0451,-0.0565,-0.0603,0,0,0,-0.0516,-0.0531,-0.0531,-0.0518,-0.0527,-0.0498,-0.049,-0.0461,-0.0467,-0.0435,-0.0433,-0.045,-0.0451,-0.0561,-0.0596,-0.0534,0,0,0,-0.0526,-0.0569,-0.0532,-0.0592,-0.0527,-0.0574,-0.0491,-0.0518,-0.0505,-0.0434,-0.045,-0.0451,-0.056,-0.0592,-0.0532,-0.04,0,0,0,-0.0591,-0.0577,-0.0615,-0.0583,-0.0661,-0.0573,-0.0638,-0.0583,-0.0512,-0.0458,-0.0458,-0.0566,-0.0596,-0.0534,-0.0481,0,0,0,0,-0.0645,-0.0662,-0.0684,-0.0715,-0.0728,-0.0733,-0.068,-0.0637,-0.0588,-0.0515,-0.0561,-0.0575,-0.0532,-0.0449,-0.0458,-0.0458,-0.0458,-0.0458,-0.0458,-0.07,-0.0724,-0.0796,-0.0822,-0.085,-0.0841,-0.0822,-0.0743,-0.0681,-0.0674,-0.0669,-0.0699,-0.0622,-0.0669,-0.067,-0.0671,-0.0671,-0.0672,-0.0672,-0.0787,-0.0824,-0.0862,-0.0943,-0.0958,-0.0993,-0.0933,-0.0884,-0.0798,-0.0761,-0.0712,-0.0579,-0.0683,-0.0681,-0.0679,-0.0678,-0.0677,-0.0676,-0.0676,-0.0801,-0.0828,-0.089,-0.0993,-0.1061,-0.107,-0.1037,-0.0991,-0.0883,-0.087,-0.0678,-0.0735,-0.0721,-0.0817,-0.0816,-0.0816,-0.0816,-0.0816,-0.0816,-0.0789,-0.0855,-0.0936,-0.104,-0.1093,-0.1118,-0.1082,-0.0988,-0.0901,-0.0774,-0.0871,-0.0745,-0.0741,-0.0726,-0.0816,-0.0816,-0.0816,-0.0816,-0.0816,-0.0797,-0.0844,-0.0937,-0.1007,-0.1114,-0.1111,-0.1095,-0.0876,-0.0763,-0.0624,-0.0677,-0.0684,-0.0599,-0.0597,-0.0573,-0.0621,-0.062,-0.0619,0,-0.0789,-0.0826,-0.0946,-0.1032,-0.1071,-0.11,-0.091,-0.0795,-0.0666,-0.0668,-0.077,-0.0843,-0.0842,-0.076,-0.0755,-0.0735,0,0,0,-0.0795,-0.0824,-0.0896,-0.1009,-0.1061,-0.0913,-0.0852,-0.0753,-0.0719,-0.0519,-0.0582,-0.0592,-0.0725,-0.0813,-0.0697,-0.0691,-0.0659,0,0]}]]